STARLINK-2293 (47863 NORAD) Tracking and Keplerian Element Data

This shows tracking and keplerian element data for the satellite.

Feedback or suggestion? Click here.




ElementValue
Catalog47863
NameSTARLINK-2293
Epoch Orbit197
Epoch Day173.91668981
Epoch Year2021
RAAN79.5069
Inclination53.0475
Eccentricity0.0001318
Argument of Perigee66.1574
Mean Anonmoly50.4589
Mean Motion15.48985119
Decay Rate-0.01080676
L11 47863U 21021D 21173.91668981 -.01080676 00000-0 -21692-1 0 9997
L22 47863 53.0475 79.5069 0001318 66.1574 50.4589 15.48985119 1971

Live tracking and technical data element details for STARLINK-2293 (NORAD 47863). STARLINK-2293 can be tracked NOW for your location showing map with azimuth and elevation plus other details from your city location.

Track the satellite on the map from your city or location and see movement details for azimuth, elevation, latitude, longitude, range, height, and movement on the map or in text.







IsCatalogInMostPopularTable: catalog: 47863, numindb: 46
Update: records affected: 1



GetName: 47863 STARLINK-2293

Hit Count: updated at: Thu, 24 Jun 2021 03:57:50 GMT